Вернуться в каталог

FENGYUN 1D

АктивенПогодаSSO
NORAD 27431·PAYLOAD·🇨🇳 China

Запущен May 15, 2002 с Taiyuan Satellite Launch Center

Loading…

Ближайшие Пролёты (ближайшие 24 часа)

TLE

СвежийSource: Space-Track

Эпоха: Sep 14, 2026, 09:40 UTC

1 27431U 02024B   26257.40307039 -.00000019  00000-0  14694-4 0  9992
2 27431  98.9431 307.2880 0015207 355.7592   4.3447 14.10234140252058

Отслеживайте FENGYUN 1D в реальном времени с AllMySat

Download on the App Store